Flag for Germany Weather past 2 weeks in Ludwigshafen, Rhineland-Palatinate, Germany

Now
73 °F

Sunny.


Feels Like: 75 °F
Forecast: 63 / 73 °F
Wind: 3 mph from North

Location: Baden Wurttemberg - Neuostheim

Current Time: Jul 28, 2014 at 11:22:14 AM

Latest Report: Jul 28, 2014 at 10:50 AM


Visibility: 10 mi

Pressure: 29.89 "Hg

Humidity: 74%

Dew point: 64 °F

Location of LudwigshafenLocation

Historic Weather in Ludwigshafen — Graph

°F

Ludwigshafen temperature yesterday

Maximum temperature yesterday: 84 °F (at 3:50 PM)
Minimum temperature yesterday: 66 °F (at 7:50 AM)
Average temperature yesterday: 77 °F

Past Weeks' High & Low Weather Summary

 TemperatureHumidityPressure
High93 °F (Jul 18, 4:50 PM)100% (Jul 21, 5:50 AM)30.18 "Hg (Jul 21, 5:50 AM)
Low59 °F (Jul 15, 5:20 AM)20% (Jul 18, 5:50 PM)29.80 "Hg (Jul 13, 4:20 PM)
Average75 °F60%29.97 "Hg
* Reported Jul 13 9:20 AM — Jul 28 9:50 AM, Ludwigshafen, Weather by CustomWeather, © 2014

Note: Actual official high and low records may vary slightly from our data, if they occured in-between our weather recording intervals... More about our weather records

Advertising

Ludwigshafen weather history for previous 24 hours

 ConditionsComfort  
Time TempWeatherWind HumidityBarometerVisibility
9:50 AM
Jul 28
70 °FSunny.2 mph83%29.89 "Hg10 mi
9:20 AM68 °FSunny.1 mph83%29.92 "Hg10 mi
8:50 AM66 °FSunny.2 mph88%29.92 "Hg10 mi
8:20 AM66 °FSunny.2 mph88%29.92 "Hg10 mi
7:50 AM66 °FSunny.2 mph88%29.89 "Hg10 mi
7:20 AM64 °FSunny.1 mph94%29.92 "Hg10 mi
6:50 AM63 °FClear.1 mph100%29.92 "Hg10 mi
6:20 AM63 °FClear.No wind94%29.92 "Hg10 mi
5:50 AM63 °FClear.1 mph94%29.92 "Hg10 mi
7:20 PM
Jul 27
68 °FThunderstorms. Scattered clouds.9 mph88%29.95 "Hg3 mi
6:50 PM81 °FScattered showers. Partly sunny.7 mph48%29.95 "HgN/A
6:20 PM82 °FScattered showers. Partly sunny.6 mph42%29.92 "HgN/A
5:50 PM82 °FPassing clouds.5 mph42%29.92 "HgN/A
5:20 PM84 °FScattered clouds.7 mph40%29.92 "HgN/A
4:50 PM84 °FSunny.2 mph37%29.95 "Hg10 mi
4:20 PM84 °FPassing clouds.6 mph43%29.95 "HgN/A
3:50 PM84 °FSunny.2 mph40%29.95 "Hg10 mi
3:20 PM82 °FSunny.6 mph45%29.98 "Hg10 mi
2:50 PM81 °FPassing clouds.6 mph45%29.98 "HgN/A
2:20 PM81 °FScattered clouds.7 mph48%29.98 "HgN/A
1:50 PM81 °FPassing clouds.6 mph48%29.98 "HgN/A
1:20 PM79 °FPassing clouds.7 mph51%29.98 "HgN/A
12:50 PM79 °FSunny.5 mph51%29.98 "Hg10 mi
12:20 PM79 °FPassing clouds.5 mph51%30.01 "HgN/A
11:50 AM77 °FSunny.5 mph57%30.01 "Hg10 mi
11:20 AM75 °FPassing clouds.6 mph61%30.01 "HgN/A
Weather by CustomWeather, © 2014

See weather overviewHow to use our weather pages